Location: D�derode
(51.8092°N, 10.1065°E)
Time: 00:16:38
(UTC+00:00)

BREEZE-M DEB (TANK) - Pass Details

Date: 22 April 2021
Orbit: 314 x 13086 km, 49.6° (Epoch: 09 May)

Event Time Altitude Azimuth Distance (km) Brightness Sun altitude
Rises 18:41:59 0° 214° (SW) 17,106 10.5 -2.7°
Reaches altitude 10° 19:02:38 10° 214° (SW) 14,078 10.0 -5.5°
Maximum altitude 19:47:28 55° 152° (SSE) 3,573 6.5 -11.3°
Drops below altitude 10° 19:57:04 10° 77° (ENE) 3,622 6.6 -12.5°
Sets 19:58:54 0° 72° (ENE) 4,118 6.9 -12.7°
